When you browse on this site, cookies collect data to enhance your experience and personalize the content and advertising you see.
Visit our Privacy Policy to learn more. By continuing to use the site, you agree to this use of cookies and data.
  • In United Kingdom
  • List of Countries
  • For 7 days
  • Water Temperature
  • Weather Map
  • Weather Widgets
  • user-avatar
    Login

    Hourly Weather Dalilar

    Today, 27 May, Wednesday

    Time Temperature Precipitation Wind Pressure Humidity
    00:00 +18°C° 0 mm 3 mps 737 mmHg 65%
    01:00 +17°C° 0 mm 2 mps 736 mmHg 67%
    02:00 +17°C° 0 mm 2 mps 736 mmHg 69%
    03:00 +16°C° 0 mm 1 mps 736 mmHg 71%
    04:00 +16°C° 0 mm 1 mps 736 mmHg 71%
    05:00 +18°C° 0 mm 1 mps 737 mmHg 71%
    06:00 +18°C° 0 mm 1 mps 737 mmHg 71%
    07:00 +19°C° 0 mm 1 mps 737 mmHg 67%
    08:00 +20°C° 0 mm 1 mps 737 mmHg 64%
    09:00 +21°C° 0 mm 1 mps 736 mmHg 61%
    10:00 +23°C° 0 mm 1 mps 736 mmHg 59%
    11:00 +24°C° 0 mm 1 mps 736 mmHg 56%
    12:00 +25°C° 0 mm 1 mps 736 mmHg 54%
    13:00 +26°C° 0 mm 1 mps 735 mmHg 52%
    14:00 +26°C° 0 mm 1 mps 735 mmHg 50%
    15:00 +27°C° 0 mm 1 mps 734 mmHg 48%
    16:00 +27°C° 0 mm 1 mps 734 mmHg 50%
    17:00 +27°C° 0 mm 1 mps 734 mmHg 52%
    18:00 +26°C° 0 mm 1 mps 735 mmHg 53%
    19:00 +25°C° 0 mm 1 mps 735 mmHg 56%
    20:00 +24°C° 0 mm 1 mps 735 mmHg 59%
    21:00 +21°C° 0 mm 2 mps 735 mmHg 62%
    22:00 +21°C° 0 mm 2 mps 735 mmHg 63%
    23:00 +21°C° 0 mm 2 mps 735 mmHg 64%

    Tomorrow, 28 May, Thursday

    Time Temperature Precipitation Wind Pressure Humidity
    00:00 +20°C° 0 mm 2 mps 734 mmHg 65%
    01:00 +20°C° 0 mm 2 mps 734 mmHg 67%
    02:00 +19°C° 0 mm 2 mps 734 mmHg 68%
    03:00 +19°C° 0 mm 2 mps 734 mmHg 70%
    04:00 +19°C° 0 mm 2 mps 734 mmHg 69%
    05:00 +20°C° 0 mm 2 mps 734 mmHg 69%
    06:00 +21°C° 0 mm 2 mps 734 mmHg 69%
    07:00 +23°C° 0 mm 2 mps 733 mmHg 64%
    08:00 +25°C° 0 mm 2 mps 733 mmHg 59%
    09:00 +26°C° 0 mm 1 mps 733 mmHg 54%
    10:00 +28°C° 0 mm 2 mps 733 mmHg 51%
    11:00 +29°C° 0 mm 2 mps 732 mmHg 48%
    12:00 +30°C° 0 mm 2 mps 732 mmHg 44%
    13:00 +31°C° 0 mm 2 mps 731 mmHg 43%
    14:00 +31°C° 0 mm 2 mps 731 mmHg 41%
    15:00 +32°C° 0 mm 2 mps 730 mmHg 39%
    16:00 +31°C° 0 mm 2 mps 730 mmHg 41%
    17:00 +31°C° 0 mm 2 mps 730 mmHg 44%
    18:00 +30°C° 0 mm 2 mps 730 mmHg 46%
    19:00 +29°C° 0 mm 2 mps 731 mmHg 49%
    20:00 +27°C° 0 mm 2 mps 731 mmHg 52%
    21:00 +26°C° 0 mm 2 mps 731 mmHg 55%
    22:00 +25°C° 0 mm 2 mps 731 mmHg 56%
    23:00 +24°C° 0 mm 2 mps 731 mmHg 58%

    Day after tomorrow, 29 May, Friday

    Time Temperature Precipitation Wind Pressure Humidity
    00:00 +23°C° 0 mm 2 mps 731 mmHg 59%
    01:00 +23°C° 0 mm 2 mps 731 mmHg 61%
    02:00 +22°C° 0 mm 1 mps 730 mmHg 63%
    03:00 +21°C° 0 mm 1 mps 730 mmHg 64%
    04:00 +22°C° 0 mm 1 mps 730 mmHg 63%
    05:00 +23°C° 0 mm 1 mps 729 mmHg 63%
    06:00 +23°C° 0 mm 1 mps 729 mmHg 62%
    07:00 +24°C° 0 mm 1 mps 729 mmHg 59%
    08:00 +26°C° 0 mm 1 mps 728 mmHg 56%
    09:00 +27°C° 0 mm 2 mps 728 mmHg 53%
    10:00 +28°C° 0 mm 2 mps 728 mmHg 51%
    11:00 +29°C° 0 mm 3 mps 727 mmHg 49%
    12:00 +30°C° 0 mm 3 mps 727 mmHg 47%
    13:00 +31°C° 0.2 mm 3 mps 726 mmHg 44%
    14:00 +33°C° 0.2 mm 3 mps 726 mmHg 41%
    15:00 +33°C° 0.2 mm 3 mps 725 mmHg 39%
    16:00 +33°C° 0 mm 3 mps 725 mmHg 41%
    17:00 +31°C° 0 mm 3 mps 725 mmHg 44%
    18:00 +31°C° 0 mm 3 mps 725 mmHg 46%
    19:00 +29°C° 0 mm 3 mps 725 mmHg 50%
    20:00 +27°C° 0 mm 2 mps 726 mmHg 54%
    21:00 +26°C° 0 mm 2 mps 726 mmHg 58%
    22:00 +24°C° 0 mm 3 mps 726 mmHg 62%
    23:00 +22°C° 0 mm 5 mps 726 mmHg 66%

    30 May, Saturday

    Time Temperature Precipitation Wind Pressure Humidity
    00:00 +20°C° 0 mm 6 mps 726 mmHg 71%
    01:00 +20°C° 0 mm 6 mps 727 mmHg 71%
    02:00 +20°C° 0 mm 7 mps 727 mmHg 71%
    03:00 +18°C° 0 mm 7 mps 727 mmHg 71%
    04:00 +18°C° 0 mm 7 mps 727 mmHg 70%
    05:00 +20°C° 0 mm 7 mps 728 mmHg 68%
    06:00 +20°C° 0 mm 7 mps 728 mmHg 67%
    07:00 +21°C° 0 mm 7 mps 728 mmHg 61%
    08:00 +23°C° 0 mm 7 mps 728 mmHg 55%
    09:00 +24°C° 0 mm 7 mps 729 mmHg 50%
    10:00 +27°C° 0 mm 7 mps 729 mmHg 47%
    11:00 +28°C° 0 mm 7 mps 729 mmHg 45%
    12:00 +29°C° 0 mm 7 mps 729 mmHg 43%
    13:00 +29°C° 0 mm 7 mps 729 mmHg 42%
    14:00 +29°C° 0 mm 6 mps 729 mmHg 41%
    15:00 +30°C° 0 mm 6 mps 729 mmHg 40%
    16:00 +29°C° 0 mm 6 mps 729 mmHg 43%
    17:00 +28°C° 0 mm 6 mps 729 mmHg 46%
    18:00 +26°C° 0 mm 6 mps 729 mmHg 49%
    19:00 +24°C° 0 mm 6 mps 730 mmHg 50%
    20:00 +23°C° 0 mm 6 mps 730 mmHg 51%
    21:00 +22°C° 0 mm 6 mps 731 mmHg 52%
    22:00 +21°C° 0 mm 5 mps 731 mmHg 53%
    23:00 +21°C° 0 mm 5 mps 731 mmHg 53%

    31 May, Sunday

    Time Temperature Precipitation Wind Pressure Humidity
    00:00 +20°C° 0 mm 5 mps 732 mmHg 54%
    01:00 +19°C° 0 mm 4 mps 732 mmHg 56%
    02:00 +19°C° 0 mm 3 mps 732 mmHg 58%
    03:00 +18°C° 0 mm 3 mps 731 mmHg 60%
    04:00 +19°C° 0 mm 3 mps 732 mmHg 60%
    05:00 +19°C° 0 mm 2 mps 732 mmHg 61%
    06:00 +19°C° 0 mm 2 mps 732 mmHg 62%
    07:00 +21°C° 0 mm 2 mps 732 mmHg 58%
    08:00 +23°C° 0 mm 2 mps 732 mmHg 54%
    09:00 +25°C° 0 mm 2 mps 732 mmHg 50%
    10:00 +26°C° 0 mm 3 mps 732 mmHg 47%
    11:00 +27°C° 0 mm 3 mps 732 mmHg 45%
    12:00 +28°C° 0 mm 3 mps 732 mmHg 42%
    13:00 +29°C° 0 mm 3 mps 732 mmHg 42%
    14:00 +29°C° 0 mm 3 mps 731 mmHg 42%
    15:00 +30°C° 0 mm 3 mps 731 mmHg 42%
    16:00 +29°C° 0 mm 3 mps 731 mmHg 45%
    17:00 +29°C° 0 mm 3 mps 731 mmHg 49%
    18:00 +28°C° 0 mm 4 mps 731 mmHg 53%
    19:00 +27°C° 0.1 mm 3 mps 731 mmHg 56%
    20:00 +25°C° 0.1 mm 3 mps 731 mmHg 60%
    21:00 +23°C° 0.1 mm 2 mps 732 mmHg 64%
    22:00 +22°C° 0 mm 3 mps 732 mmHg 64%
    23:00 +21°C° 0 mm 3 mps 732 mmHg 64%

    1 June, Monday

    Time Temperature Precipitation Wind Pressure Humidity
    00:00 +20°C° 0 mm 3 mps 731 mmHg 64%
    01:00 +20°C° 0 mm 2 mps 731 mmHg 65%
    02:00 +19°C° 0 mm 2 mps 731 mmHg 66%
    03:00 +19°C° 0 mm 1 mps 731 mmHg 67%
    04:00 +20°C° 0 mm 1 mps 731 mmHg 67%
    05:00 +20°C° 0 mm 1 mps 731 mmHg 66%
    06:00 +20°C° 0 mm 1 mps 731 mmHg 66%
    07:00 +22°C° 0 mm 1 mps 731 mmHg 62%
    08:00 +23°C° 0 mm 1 mps 731 mmHg 59%
    09:00 +24°C° 0 mm 2 mps 731 mmHg 55%
    10:00 +25°C° 0 mm 2 mps 731 mmHg 53%
    11:00 +26°C° 0 mm 2 mps 730 mmHg 51%
    12:00 +27°C° 0 mm 2 mps 730 mmHg 48%
    13:00 +28°C° 0 mm 2 mps 730 mmHg 47%
    14:00 +29°C° 0 mm 2 mps 729 mmHg 46%
    15:00 +29°C° 0 mm 2 mps 729 mmHg 44%
    16:00 +29°C° 0.1 mm 2 mps 729 mmHg 45%
    17:00 +29°C° 0.1 mm 2 mps 729 mmHg 46%
    18:00 +29°C° 0.1 mm 2 mps 728 mmHg 47%
    19:00 +27°C° 0 mm 2 mps 729 mmHg 50%
    20:00 +26°C° 0 mm 2 mps 729 mmHg 53%
    21:00 +24°C° 0 mm 2 mps 729 mmHg 55%
    22:00 +24°C° 0 mm 2 mps 729 mmHg 56%
    23:00 +23°C° 0 mm 2 mps 729 mmHg 56%
    Show more